Change the Weather History Date:

Friday, June 14, 2013

  Actual Average Record
Temperature  
Mean Temperature 71 °F -  
Max Temperature 80 °F 78 °F 91 °F (1973)
Min Temperature 62 °F 57 °F 37 °F (1969)
Cooling Degree Days 6    
Growing Degree Days 21 (Base 50)    
Moisture  
Dew Point 59 °F    
Average Humidity 66    
Maximum Humidity 88    
Minimum Humidity 50    
Precipitation  
Precipitation 0.00 in - - ()
Sea Level Pressure  
Sea Level Pressure 29.92 in    
Wind  
Wind Speed 10 mph (South)    
Max Wind Speed 23 mph    
Max Gust Speed 33 mph    
Visibility 10 miles    
Events Thunderstorm    
Averages and records for this station are not official NWS values.
T = Trace of Precipitation, MM = Missing Value Source: NWS Daily Summary

Daily Weather History Graph

Daily Weather History Graph

Search for Another Location

Airport or City:

Trip Planner

Search our weather history database for the weather conditions in past years. The results will help you decide how hot, cold, wet, or windy it might be!

Date:

Astronomy

Jun. 14, 2013 Rise Set
Actual Time 5:33 AM CDT 9:12 PM CDT
Civil Twilight 4:56 AM CDT 9:49 PM CDT
Nautical Twilight 4:06 AM CDT 10:40 PM CDT
Astronomical Twilight 2:58 AM CDT 11:47 PM CDT
Moon 11:24 AM CDT (6/14) 12:05 AM CDT (6/14)
Length of Visible Light 16h 53m
Length of Day
15h 38m
Waxing Crescent, 30% of the Moon is Illuminated
Jun 14
Waxing Crescent
Jun 16
First Quarter
Jun 23
Full
Jun 29
Last Quarter
Jul 8
New

Hourly Weather History & Observations

Time (CDT) Temp. Heat Index Dew Point Humidity Pressure Visibility Wind Dir Wind Speed Gust Speed Precip Events Conditions
12:12 AM 64.4 °F - 55.4 °F 73% 30.06 in 10.0 mi SSE 3.5 mph - N/A Thunderstorm Clear
12:33 AM 64.4 °F - 55.4 °F 73% 30.06 in 10.0 mi SSE 4.6 mph - N/A   Clear
12:53 AM 64.4 °F - 55.4 °F 73% 30.06 in 10.0 mi SSE 5.8 mph - N/A   Clear
1:12 AM 64.4 °F - 55.4 °F 73% 30.05 in 10.0 mi SE 5.8 mph - N/A   Clear
1:33 AM 64.4 °F - 55.4 °F 73% 30.06 in 10.0 mi South 4.6 mph - N/A   Clear
1:53 AM 62.6 °F - 57.2 °F 82% 30.06 in 10.0 mi South 5.8 mph - N/A   Clear
2:12 AM 64.4 °F - 55.4 °F 73% 30.06 in 10.0 mi SE 5.8 mph - N/A   Clear
2:33 AM 62.6 °F - 55.4 °F 77% 30.04 in 10.0 mi SE 5.8 mph - N/A   Clear
2:53 AM 64.4 °F - 55.4 °F 73% 30.03 in 10.0 mi SSE 6.9 mph - N/A   Clear
3:12 AM 64.4 °F - 55.4 °F 73% 30.03 in 10.0 mi South 9.2 mph - N/A   Clear
3:33 AM 64.4 °F - 55.4 °F 73% 30.02 in 10.0 mi SSE 6.9 mph - N/A   Clear
3:52 AM 64.4 °F - 55.4 °F 73% 30.01 in 10.0 mi SSE 8.1 mph - N/A   Clear
4:13 AM 64.4 °F - 55.4 °F 73% 29.99 in 10.0 mi SSE 9.2 mph - N/A   Clear
4:33 AM 64.4 °F - 55.4 °F 73% 29.99 in 10.0 mi SSE 9.2 mph - N/A   Clear
4:52 AM 64.4 °F - 55.4 °F 73% 29.99 in 10.0 mi SSE 9.2 mph - N/A   Clear
5:12 AM 64.4 °F - 55.4 °F 73% 29.97 in 10.0 mi SSE 11.5 mph 18.4 mph N/A   Clear
5:33 AM 64.4 °F - 55.4 °F 73% 29.97 in 10.0 mi South 9.2 mph 17.3 mph N/A   Clear
5:52 AM 62.6 °F - 55.4 °F 77% 29.98 in 10.0 mi South 11.5 mph 16.1 mph N/A   Clear
6:13 AM 62.6 °F - 55.4 °F 77% 29.98 in 10.0 mi South 10.4 mph - N/A   Clear
6:33 AM 62.6 °F - 55.4 °F 77% 29.99 in 10.0 mi South 9.2 mph - N/A   Clear
6:52 AM 64.4 °F - 55.4 °F 73% 29.99 in 10.0 mi SSE 11.5 mph - N/A   Scattered Clouds
7:13 AM 64.4 °F - 55.4 °F 73% 30.00 in 10.0 mi South 11.5 mph 16.1 mph N/A   Overcast
7:33 AM 64.4 °F - 55.4 °F 73% 29.99 in 10.0 mi South 13.8 mph 20.7 mph N/A   Overcast
7:52 AM 64.4 °F - 55.4 °F 73% 30.00 in 10.0 mi South 12.7 mph - N/A   Overcast
8:13 AM 66.2 °F - 57.2 °F 73% 29.99 in 10.0 mi SSE 12.7 mph 18.4 mph N/A   Overcast
8:32 AM 66.2 °F - 57.2 °F 73% 29.99 in 10.0 mi South 10.4 mph - N/A   Overcast
8:53 AM 66.2 °F - 57.2 °F 73% 30.00 in 10.0 mi South 12.7 mph 19.6 mph N/A   Overcast
9:13 AM 66.2 °F - 57.2 °F 73% 30.00 in 10.0 mi SSE 8.1 mph - N/A   Mostly Cloudy
9:32 AM 69.8 °F - 57.2 °F 64% 29.99 in 10.0 mi SSE 11.5 mph 17.3 mph N/A   Scattered Clouds
9:53 AM 69.8 °F - 57.2 °F 64% 29.97 in 10.0 mi SSE 11.5 mph 20.7 mph N/A   Clear
10:12 AM 73.4 °F - 59.0 °F 61% 29.96 in 10.0 mi SSE 12.7 mph 21.9 mph N/A   Clear
10:32 AM 71.6 °F - 57.2 °F 60% 29.95 in 10.0 mi SSE 15.0 mph 25.3 mph N/A   Clear
10:53 AM 73.4 °F - 57.2 °F 57% 29.96 in 10.0 mi South 15.0 mph 23.0 mph N/A   Scattered Clouds
11:12 AM 71.6 °F - 57.2 °F 60% 29.93 in 10.0 mi South 17.3 mph 20.7 mph N/A   Mostly Cloudy
11:32 AM 73.4 °F - 59.0 °F 61% 29.92 in 10.0 mi SSE 12.7 mph 24.2 mph N/A   Scattered Clouds
11:53 AM 75.2 °F - 60.8 °F 61% 29.93 in 10.0 mi South 11.5 mph 19.6 mph N/A   Mostly Cloudy
12:12 PM 75.2 °F - 57.2 °F 53% 29.94 in 10.0 mi South 17.3 mph 24.2 mph N/A   Overcast
12:33 PM 75.2 °F - 57.2 °F 53% 29.94 in 10.0 mi South 16.1 mph 24.2 mph N/A   Overcast
12:53 PM 75.2 °F - 57.2 °F 53% 29.94 in 10.0 mi South 15.0 mph 23.0 mph N/A   Mostly Cloudy
1:12 PM 77.0 °F - 57.2 °F 50% 29.92 in 10.0 mi South 21.9 mph 27.6 mph N/A   Mostly Cloudy
1:33 PM 78.8 °F - 60.8 °F 54% 29.90 in 10.0 mi South 21.9 mph 29.9 mph N/A   Scattered Clouds
1:53 PM 78.8 °F - 60.8 °F 54% 29.88 in 10.0 mi South 20.7 mph 33.4 mph N/A   Clear
2:12 PM 78.8 °F - 60.8 °F 54% 29.87 in 10.0 mi SSE 23.0 mph 32.2 mph N/A   Clear
2:33 PM 78.8 °F - 60.8 °F 54% 29.86 in 10.0 mi South 23.0 mph 33.4 mph N/A   Clear
2:53 PM 78.8 °F - 60.8 °F 54% 29.87 in 10.0 mi South 19.6 mph 27.6 mph N/A   Mostly Cloudy
3:13 PM 78.8 °F - 60.8 °F 54% 29.87 in 10.0 mi South 21.9 mph 29.9 mph N/A   Overcast
3:32 PM 78.8 °F - 62.6 °F 57% 29.85 in 10.0 mi South 18.4 mph 26.5 mph N/A   Overcast
3:53 PM 80.6 °F 81.8 °F 62.6 °F 54% 29.85 in 10.0 mi South 18.4 mph 26.5 mph N/A   Mostly Cloudy
4:13 PM 78.8 °F - 62.6 °F 57% 29.84 in 10.0 mi South 18.4 mph 26.5 mph N/A   Mostly Cloudy
4:32 PM 80.6 °F 81.8 °F 62.6 °F 54% 29.84 in 10.0 mi South 19.6 mph 26.5 mph N/A   Mostly Cloudy
4:53 PM 80.6 °F 81.8 °F 62.6 °F 54% 29.83 in 10.0 mi South 18.4 mph - N/A   Clear
5:13 PM 78.8 °F - 62.6 °F 57% 29.82 in 10.0 mi South 15.0 mph 25.3 mph N/A   Scattered Clouds
5:32 PM 78.8 °F - 62.6 °F 57% 29.82 in 10.0 mi South 18.4 mph 23.0 mph N/A   Scattered Clouds
5:53 PM 78.8 °F - 62.6 °F 57% 29.82 in 10.0 mi South 16.1 mph 23.0 mph N/A   Overcast
6:13 PM 78.8 °F - 62.6 °F 57% 29.82 in 10.0 mi South 12.7 mph 17.3 mph N/A   Overcast
6:32 PM 80.6 °F 81.8 °F 62.6 °F 54% 29.81 in 10.0 mi SSW 15.0 mph 19.6 mph N/A   Overcast
6:53 PM 80.6 °F 81.8 °F 62.6 °F 54% 29.81 in 10.0 mi South 11.5 mph 19.6 mph N/A   Overcast
7:12 PM 78.8 °F - 62.6 °F 57% 29.81 in 10.0 mi South 12.7 mph 20.7 mph N/A   Overcast
7:32 PM 78.8 °F - 62.6 °F 57% 29.81 in 10.0 mi South 16.1 mph 23.0 mph N/A   Overcast
7:53 PM 78.8 °F - 62.6 °F 57% 29.80 in 10.0 mi South 13.8 mph 18.4 mph N/A   Overcast
8:12 PM 77.0 °F - 62.6 °F 61% 29.80 in 10.0 mi South 13.8 mph - N/A   Overcast
8:33 PM 75.2 °F - 62.6 °F 65% 29.81 in 10.0 mi South 11.5 mph 16.1 mph N/A   Overcast
8:53 PM 75.2 °F - 62.6 °F 65% 29.82 in 10.0 mi South 15.0 mph - N/A   Overcast
9:12 PM 75.2 °F - 62.6 °F 65% 29.82 in 10.0 mi South 11.5 mph 18.4 mph N/A   Overcast
9:33 PM 75.2 °F - 62.6 °F 65% 29.85 in 10.0 mi South 16.1 mph - N/A   Overcast
9:53 PM 73.4 °F - 62.6 °F 69% 29.85 in 10.0 mi South 15.0 mph 21.9 mph N/A   Overcast
10:12 PM 73.4 °F - 62.6 °F 69% 29.86 in 10.0 mi South 16.1 mph 26.5 mph N/A   Overcast
10:33 PM 71.6 °F - 64.4 °F 78% 29.86 in 10.0 mi South 11.5 mph 17.3 mph N/A   Overcast
10:53 PM 69.8 °F - 64.4 °F 83% 29.85 in 10.0 mi South 12.7 mph - N/A   Overcast
11:12 PM 69.8 °F - 64.4 °F 83% 29.84 in 10.0 mi South 11.5 mph - N/A   Scattered Clouds
11:33 PM 69.8 °F - 64.4 °F 83% 29.83 in 10.0 mi SSE 10.4 mph - N/A   Scattered Clouds
11:53 PM 68.0 °F - 64.4 °F 88% 29.83 in 10.0 mi SSE 8.1 mph - N/A   Clear